This is the latest recevied weather packets stored in our database for station/object EA5GK-10. If no packets are shown the sender has not sent any weather packets the latest 10 day(s).
| Time | Temp. | Humidity | Pressure | Rain* | Wind** | Luminosity | Snow |
|---|---|---|---|---|---|---|---|
| 1788417604 | 25° C | 60% | 1023.7 hPa | - | - | - | - |
| 1788416704 | 24.44° C | 60% | 1023.4 hPa | - | - | - | - |
| 1788415804 | 24.44° C | 59% | 1023.2 hPa | - | - | - | - |
| 1788414903 | 24.44° C | 59% | 1023 hPa | - | - | - | - |
| 1788414003 | 24.44° C | 57% | 1022.8 hPa | - | - | - | - |
| 1788413103 | 24.44° C | 57% | 1022.8 hPa | - | - | - | - |
| 1788412203 | 25° C | 57% | 1022.5 hPa | - | - | - | - |
| 1788411303 | 25° C | 56% | 1022.4 hPa | - | - | - | - |
| 1788410403 | 25° C | 56% | 1022.3 hPa | - | - | - | - |
| 1788409503 | 25° C | 57% | 1022.4 hPa | - | - | - | - |
| 1788408603 | 25° C | 57% | 1022.3 hPa | - | - | - | - |
| 1788407702 | 25.56° C | 57% | 1022.4 hPa | - | - | - | - |
| 1788406802 | 25.56° C | 57% | 1022.4 hPa | - | - | - | - |
| 1788405902 | 25.56° C | 57% | 1022.2 hPa | - | - | - | - |
| 1788405002 | 26.11° C | 57% | 1022.3 hPa | - | - | - | - |
| 1788404102 | 26.11° C | 58% | 1022.2 hPa | - | - | - | - |
| 1788403202 | 26.11° C | 58% | 1022.1 hPa | - | - | - | - |
| 1788402302 | 26.67° C | 57% | 1022.1 hPa | - | - | - | - |
| 1788401401 | 26.67° C | 57% | 1022.3 hPa | - | - | - | - |
| 1788400501 | 26.67° C | 57% | 1022.5 hPa | - | - | - | - |
| 1788399601 | 26.67° C | 57% | 1022.5 hPa | - | - | - | - |
| 1788398701 | 26.67° C | 57% | 1022.6 hPa | - | - | - | - |
| 1788397801 | 27.22° C | 55% | 1022.7 hPa | - | - | - | - |
| 1788396901 | 27.22° C | 54% | 1022.8 hPa | - | - | - | - |
| 1788396000 | 27.78° C | 54% | 1022.9 hPa | - | - | - | - |
* Rain since midnight (hover to see other rain measurements)
** Current wind speed in m/s (hover to see current wind gust speed)